Погода в Сестриере

Италия     44°57′28″N   6°52′34″E
темп.,
°C
ветер,
м/с
пор.,
м/с
влажн.,
%
обл.,
%
осадки,
мм/ч
давл.,
гПа
погр.,
м
13 мая, чт
чт1323:000з33958 0.1 101169
02:00−1з459210 0.1 1012133
05:00−2з45916 0.0 1011119
08:00+1з347717 0.0 1008380
11:00+7зсз114610 0.0 10051406
14:00+7ссз125895 0.7 10041314
17:00+7сз235379 1.5 10041614
20:00+3зсз34675 1.8 1007379
14 мая, пт
пт1423:00−2з44835 0.0 101291
02:00−3з448390 0.0 101298
05:00−1з237298 0.0 101083
08:00+2з225197 0.0 1009261
11:00+6в2236100 0.0 10061557
14:00+6всв2264100 0.8 10071328
17:00+5в227893 2.6 1007722
20:00+3з128844 4.8 1010249
15 мая, сб
сб1523:00−1з349199 0.0 1015106
02:00−1з3490100 0.0 1014101
05:00−2з348936 0.0 101484
08:00+2зюз1267100 0.0 1011205
11:00+7вюв134066 0.0 10081410
14:00+9вюв135192 0.0 10071435
17:00+4зсз2389100 1.1 1008517
20:00+2з359694 3.3 1010236
16 мая, вс
вс1623:00+1з359795 1.9 1011213
02:00+1з459898 2.3 1011211
05:00+1з459698 0.0 1009281
08:00+3зюз4689100 0.1 1009419
11:00+7з4464100 0.0 1007840
14:00+9з455096 0.1 10071511
17:00+6з446453 0.2 1007842
20:00+5з35736 0.2 1006395
17 мая, пн
пн1723:000з45893 0.0 101192
02:00−2з45907 0.0 1012105
05:00−2з569245 0.0 1012186
08:00+1з56664 0.0 1010529
11:00+5з46453 0.0 10081392
14:00+7з473934 0.1 10072247
17:00+6з484013 0.1 10071872
20:00+2з46644 0.1 1011562